Weather History for KHRL - October, 2012

Change the Weather History Date:

Wednesday, October 10, 2012

  Actual Average Record
Temperature  
Mean Temperature 82 °F 77 °F  
Max Temperature 94 °F 88 °F 99 °F (1962)
Min Temperature 70 °F 67 °F 43 °F (2000)
Degree Days  
Heating Degree Days 0 0  
Month to date heating degree days 0 0  
Since 1 July heating degree days 0 0  
Cooling Degree Days 17 12  
Month to date cooling degree days 127 131  
Year to date cooling degree days 4241 3560  
Growing Degree Days 32 (Base 50)    
Moisture  
Dew Point 72 °F    
Average Humidity 73    
Maximum Humidity 100    
Minimum Humidity 46    
Precipitation  
Precipitation 0.00 in 0.07 in 3.73 in (1994)
Month to date precipitation 0.24 0.86  
Year to date precipitation 12.96 20.29  
Sea Level Pressure  
Sea Level Pressure 29.98 in    
Wind  
Wind Speed 10 mph (SE)    
Max Wind Speed 22 mph    
Max Gust Speed 26 mph    
Visibility 6 miles    
Events Fog    
T = Trace of Precipitation, MM = Missing Value Source: NWS Daily Summary

Daily Weather History Graph

Daily Weather History Graph

Search for Another Location

Airport or City:

Trip Planner

Search our weather history database for the weather conditions in past years. The results will help you decide how hot, cold, wet, or windy it might be!

Date:

Astronomy

Oct. 10, 2012 Rise Set
Actual Time 7:27 AM CDT 7:07 PM CDT
Civil Twilight 7:04 AM CDT 7:30 PM CDT
Nautical Twilight 6:37 AM CDT 7:57 PM CDT
Astronomical Twilight 6:10 AM CDT 8:23 PM CDT
Moon 2:33 AM CDT (10/10) 3:45 PM CDT (10/10)
Length of Visible Light 12h 25m
Length of Day
11h 39m
Waning Crescent, 27% of the Moon is Illuminated
Oct 10
Waning Crescent
Oct 15
New
Oct 21
First Quarter
Oct 29
Full
Nov 6
Last Quarter

Hourly Weather History & Observations

Time (CDT) Temp. Heat Index Dew Point Humidity Pressure Visibility Wind Dir Wind Speed Gust Speed Precip Events Conditions
12:52 AM 75.0 °F - 73.0 °F 94% 29.97 in 8.0 mi SE 4.6 mph - N/A   Partly Cloudy
1:52 AM 75.0 °F - 73.0 °F 94% 29.97 in 8.0 mi SE 5.8 mph - N/A   Clear
2:52 AM 73.9 °F - 73.0 °F 97% 29.95 in 6.0 mi SE 4.6 mph - N/A   Clear
3:49 AM 71.6 °F - 71.6 °F 100% 29.95 in 1.5 mi Calm Calm - N/A   Clear
3:52 AM 72.0 °F - 71.1 °F 97% 29.95 in 0.8 mi Calm Calm - N/A   Clear
4:25 AM 71.6 °F - 71.6 °F 100% 29.94 in 0.2 mi Calm Calm - N/A Fog Fog
4:52 AM 71.1 °F - 70.0 °F 96% 29.94 in 0.2 mi ESE 3.5 mph - N/A Fog Fog
5:26 AM 71.6 °F - 71.6 °F 100% 29.95 in 0.5 mi ESE 3.5 mph - N/A Fog Fog
5:52 AM 72.0 °F - 71.1 °F 97% 29.96 in 2.5 mi Calm Calm - N/A   Clear
6:03 AM 71.6 °F - 71.6 °F 100% 29.96 in 0.8 mi ESE 3.5 mph - N/A   Clear
6:24 AM 71.6 °F - 71.6 °F 100% 29.97 in 0.5 mi Calm Calm - N/A Fog Fog
6:52 AM 71.1 °F - 70.0 °F 96% 29.98 in 0.8 mi ESE 4.6 mph - N/A   Mostly Cloudy
6:56 AM 71.6 °F - 69.8 °F 94% 29.97 in 1.0 mi ESE 4.6 mph - N/A   Scattered Clouds
7:02 AM 71.6 °F - 69.8 °F 94% 29.98 in 3.0 mi ESE 4.6 mph - N/A   Scattered Clouds
7:24 AM 71.6 °F - 69.8 °F 94% 29.98 in 1.5 mi SE 3.5 mph - N/A   Scattered Clouds
7:36 AM 71.6 °F - 69.8 °F 94% 29.98 in 3.0 mi SSE 4.6 mph - N/A   Scattered Clouds
7:52 AM 71.1 °F - 71.1 °F 100% 29.99 in 5.0 mi SE 3.5 mph - N/A   Scattered Clouds
8:52 AM 77.0 °F - 75.9 °F 96% 30.00 in 10.0 mi SSE 8.1 mph - N/A   Clear
9:52 AM 84.0 °F 91.9 °F 75.0 °F 74% 30.02 in 10.0 mi SSE 13.8 mph - N/A   Partly Cloudy
10:24 AM 86.0 °F 93.4 °F 73.4 °F 66% 30.03 in 10.0 mi SSE 13.8 mph - N/A   Scattered Clouds
10:52 AM 87.8 °F 95.6 °F 73.4 °F 62% 30.03 in 10.0 mi SSE 13.8 mph 18.4 mph N/A   Partly Cloudy
11:52 AM 89.1 °F 95.0 °F 71.1 °F 55% 30.03 in 10.0 mi South 10.4 mph - N/A   Mostly Cloudy
12:52 PM 90.0 °F 96.9 °F 72.0 °F 55% 30.01 in 10.0 mi SE 13.8 mph - N/A   Mostly Cloudy
1:38 PM 91.4 °F 98.4 °F 71.6 °F 52% 29.99 in 10.0 mi SE 12.7 mph 20.7 mph N/A   Partly Cloudy
1:52 PM 91.0 °F 98.2 °F 72.0 °F 53% 29.98 in 10.0 mi SE 11.5 mph - N/A   Partly Cloudy
1:54 PM 91.4 °F 98.4 °F 71.6 °F 52% 29.98 in 10.0 mi SSE 13.8 mph - N/A   Scattered Clouds
2:52 PM 90.0 °F 95.4 °F 70.0 °F 52% 29.94 in 10.0 mi SE 18.4 mph - N/A   Scattered Clouds
3:52 PM 93.9 °F 100.3 °F 70.0 °F 46% 29.93 in 10.0 mi SE 20.7 mph 26.5 mph N/A   Mostly Cloudy
4:52 PM 91.0 °F 96.6 °F 70.0 °F 50% 29.93 in 10.0 mi SE 19.6 mph - N/A   Clear
5:52 PM 88.0 °F 93.8 °F 71.1 °F 57% 29.93 in 10.0 mi SE 18.4 mph - N/A   Clear
6:52 PM 86.0 °F 92.2 °F 72.0 °F 63% 29.95 in 10.0 mi SE 18.4 mph - N/A   Clear
7:52 PM 82.9 °F 89.4 °F 73.9 °F 74% 29.98 in 10.0 mi SE 16.1 mph - N/A   Clear
8:52 PM 81.0 °F 86.7 °F 75.0 °F 82% 30.01 in 10.0 mi ESE 9.2 mph - N/A   Clear
9:52 PM 80.1 °F 85.1 °F 75.0 °F 85% 30.03 in 10.0 mi ESE 9.2 mph - N/A   Clear
10:52 PM 80.1 °F 85.1 °F 75.0 °F 85% 30.03 in 10.0 mi ESE 9.2 mph - N/A   Clear
11:52 PM 79.0 °F - 75.0 °F 88% 30.03 in 10.0 mi SE 6.9 mph - N/A   Clear